VEGT

Details ICAO VEGT (GAU)
Name GUWAHATI INTL
Region India
Timezone Asia/Kolkata (UTC+5.5)
Plans Departing 42
Arriving 45
Stats Elevation 162 ft / 49 m (AMSL)
Location 26.106091° 91.585940°
Runways 1
Magnetic Variation 0.144° W
Sunrise 2018-05-21 23:05:53 UTC / 2018-05-22 04:35:53 Local
Sunset 2018-05-22 12:37:35 UTC / 2018-05-22 18:07:35 Local
Advertisement - Login to hide

Runways

ID Width Length Bearing (true) Bearing (mag) Surface Threshold Offset Overrun Length
02 150 ft / 46 m 9,028 ft / 2,752 m 22.66° 22.80° Asphalt 0 ft / 0 m 0 ft / 0 m
20 150 ft / 46 m 9,028 ft / 2,752 m 202.66° 202.80° Asphalt 0 ft / 0 m 0 ft / 0 m

Approach Navaids

Runway Type Ident Frequency Range Bearing (true) Bearing (mag) Slope Elevation
02 Localiser IGHT 110.30 MHz 18 nm / 33 km 21.43° 21.57° - 162 ft / 49 m (AMSL)
02 Glidescope IGHT 110.30 MHz 10 nm / 19 km 22.66° 22.80° 3.25° 162 ft / 49 m (AMSL)
02 DME IGHT 110.30 MHz 18 nm / 33 km - - - 162 ft / 49 m (AMSL)

Map

Weather


0- 5 10 15 20 25 30 35+ Temperature / ° C

Clouds and Precipitation
Forecast for 2018-05-22 00:00 UTC. Updated 5 hours ago

Ground ~20,000 ft ~40,000 ft Winds

METAR

VEGT 220430Z 35004KT 5000 BR SCT020 FEW025CB BKN100 31/27 Q1008 NOSIG

TAF

Not found

Frequencies

Recorded 126.60 MHz ATIS
Tower 118.75 MHz TWR
Ground 121.90 MHz GND
Approach 123.30 MHz APP
Warning: Do not use this data for real-world aviation or navigation. No guarantee of current accuracy is given.